Regional Weather Roundup
Issued by NWS

Home | Current Version | Previous Version | Graphics & Text | Print | Product List | Glossary On
Versions: 1 2 3 4 5 6 7 8 9 10 11 12 13 14 15 16 17 18 19 20 21 22 23 24 25 26 27 28 29 30 31 32 33 34 35 36 37 38 39 40 41 42 43 44 45 46 47 48 49 50
000
ASUS43 KMKX 020021
RWRWI

WISCONSIN REGIONAL WEATHER ROUNDUP
NATIONAL WEATHER SERVICE MILWAUKEE/SULLIVAN WI
700 PM CDT WED JUL 01 2015

NOTE: "FAIR" INDICATES FEW OR NO CLOUDS BELOW 12,000 FEET WITH NO
SIGNIFICANT WEATHER AND/OR OBSTRUCTIONS TO VISIBILITY.

WIZ001-002-006>008-014>016-023>028-020100-
NORTHWEST WISCONSIN

CITY           SKY/WX    TMP DP  RH WIND       PRES   REMARKS
SUPERIOR ARPT  SUNNY     64  57  77 NE7       29.98S
6HR MIN TEMP:  64; 6HR MAX TEMP:  73;

ASHLAND        SUNNY     67  49  52 E6        30.00F
6HR MIN TEMP:  67; 6HR MAX TEMP:  71;

HAYWARD        SUNNY     71  51  49 E6        30.00S
6HR MIN TEMP:  69; 6HR MAX TEMP:  73;

SIREN          SUNNY     73  49  43 SE3       30.00S
6HR MIN TEMP:  70; 6HR MAX TEMP:  75;

CUMBERLAND     SUNNY     70  50  49 NE5       30.00S
RICE LAKE      SUNNY     72  50  45 N6        30.01S
6HR MIN TEMP:  67; 6HR MAX TEMP:  73;

CHETEK         MOSUNNY   71  53  51 NW5       29.99S
6HR MIN TEMP:  66; 6HR MAX TEMP:  73;

LADYSMITH      SUNNY     71  50  47 N8        30.01R
6HR MIN TEMP:  68; 6HR MAX TEMP:  73;

EAU CLAIRE     SUNNY     72  51  47 NE5       29.98S
6HR MIN TEMP:  68; 6HR MAX TEMP:  74;

MENOMONIE      SUNNY     72  49  44 NE3       29.99S
6HR MIN TEMP:  68; 6HR MAX TEMP:  73;

NEW RICHMOND   SUNNY     71  51  48 CALM      29.99F
6HR MIN TEMP:  69; 6HR MAX TEMP:  72;

OSCEOLA        PTSUNNY   74  51  45 E3        30.01S
6HR MIN TEMP:  69; 6HR MAX TEMP:  74;

$$

WIZ003>005-009-010-017-018-020100-
NORTH CENTRAL WISCONSIN

CITY           SKY/WX    TMP DP  RH WIND       PRES   REMARKS
MANITOWISH WTR SUNNY     65  46  48 NE7       30.01S
6HR MIN TEMP:  64; 6HR MAX TEMP:  69;

ARBOR VITAE    SUNNY     67  45  45 NE6       30.01S
6HR MIN TEMP:  64; 6HR MAX TEMP:  71;

WOODRUFF       SUNNY     67  45  45 NE6       30.01S
6HR MIN TEMP:  64; 6HR MAX TEMP:  71;

RHINELANDER    SUNNY     67  44  43 VRB5      30.01S
6HR MIN TEMP:  65; 6HR MAX TEMP:  70;

EAGLE RIVER    SUNNY     64  43  45 N6        30.01S
LAND O LAKES   SUNNY     65  43  44 N6        30.03S
6HR MIN TEMP:  63; 6HR MAX TEMP:  68;

PHILLIPS       SUNNY     68  45  44 N6        30.00R
6HR MIN TEMP:  65; 6HR MAX TEMP:  71;

TOMAHAWK       SUNNY     67  46  45 NE5       30.01R
6HR MIN TEMP:  65; 6HR MAX TEMP:  70;

MEDFORD        SUNNY     68  47  46 NE5       29.99S
6HR MIN TEMP:  65; 6HR MAX TEMP:  71;

MERRILL        SUNNY     69  45  42 NE5       29.99S
6HR MIN TEMP:  66; 6HR MAX TEMP:  71;

$$

WIZ029-030-035-036-043>047-020100-
CENTRAL WISCONSIN

CITY           SKY/WX    TMP DP  RH WIND       PRES   REMARKS
WAUSAU         SUNNY     71  41  33 NE6       29.96F
6HR MIN TEMP:  67; 6HR MAX TEMP:  73;

MOSINEE        SUNNY     70  45  40 N3        29.99S
MARSHFIELD     SUNNY     71  44  37 N5        29.98S
6HR MIN TEMP:  66; 6HR MAX TEMP:  73;

STEVENS POINT  SUNNY     69  45  41 NE5       29.98S
6HR MIN TEMP:  64; 6HR MAX TEMP:  70;

WAUPACA        SUNNY     72  47  41 CALM      29.97S
6HR MIN TEMP:  69; 6HR MAX TEMP:  74;

WAUTOMA        SUNNY     71  44  37 CALM      29.98S
6HR MIN TEMP:  68; 6HR MAX TEMP:  72;

WISC RAPIDS    SUNNY     72  45  37 N6        29.98F
6HR MIN TEMP:  68; 6HR MAX TEMP:  72;

CAMP DOUGLAS   MOSUNNY   70  50  49 N3        29.97S
6HR MIN TEMP:  67;

$$

WIZ011>013-019>022-031-037>040-048>050-020100-
NORTHEAST WISCONSIN

CITY           SKY/WX    TMP DP  RH WIND       PRES   REMARKS
ANTIGO         SUNNY     66  50  54 N6        29.99S
SHAWANO        SUNNY     72  44  36 NE5       29.97S
6HR MIN TEMP:  68; 6HR MAX TEMP:  74;

OCONTO         SUNNY     64  50  61 E6        29.98R
6HR MIN TEMP:  60; 6HR MAX TEMP:  70;

STURGEON BAY   SUNNY     61  46  59 E5        30.01S
6HR MIN TEMP:  57; 6HR MAX TEMP:  64;

GREEN BAY      SUNNY     68  52  56 NE10      29.97S
6HR MIN TEMP:  63; 6HR MAX TEMP:  71;

MANITOWOC      MOSUNNY   57  53  86 MISG      30.00R
6HR MIN TEMP:  57; 6HR MAX TEMP:  62;

APPLETON       MOSUNNY   66  48  52 VRB3      29.98S
CLINTONVILLE   SUNNY     70  41  35 N5        29.97S
OSHKOSH        MOSUNNY   66  51  58 NE6       29.98R
6HR MIN TEMP:  64; 6HR MAX TEMP:  68;

$$

WIZ032>034-041-042-053>061-020100-
SOUTHWEST WISCONSIN

CITY           SKY/WX    TMP DP  RH WIND       PRES   REMARKS
LA CROSSE      MOSUNNY   70  52  52 W5        29.98R
6HR MIN TEMP:  68; 6HR MAX TEMP:  72;

SPARTA         SUNNY     71  45  39 NE3       29.98S
6HR MIN TEMP:  68; 6HR MAX TEMP:  73;

VIROQUA        MOSUNNY   67  49  52 CALM      30.00R
6HR MIN TEMP:  64; 6HR MAX TEMP:  68;

BOSCOBEL       PTSUNNY   67  51  56 N3        29.98R
6HR MIN TEMP:  67; 6HR MAX TEMP:  72;

PRAIRIE DU CHI PTSUNNY   65  50  58 CALM      29.99R
6HR MIN TEMP:  65; 6HR MAX TEMP:  67;

PLATTEVILLE    CLOUDY    66  51  58 E3        29.98S
6HR MIN TEMP:  65; 6HR MAX TEMP:  69;

$$

WIZ056-057-062-063-064-067-068-020100-
SOUTH CENTRAL WISCONSIN

CITY           SKY/WX    TMP DP  RH WIND       PRES   REMARKS
REEDSBURG      MOSUNNY   69  50  50 N3        29.96S
6HR MIN TEMP:  66; 6HR MAX TEMP:  70;

BARABOO/DELLS  MOSUNNY   69  47  45 CALM      29.97S
6HR MIN TEMP:  66; 6HR MAX TEMP:  70;

LONE ROCK      MOSUNNY   68  51  54 CALM      29.98R
6HR MIN TEMP:  66; 6HR MAX TEMP:  71;

MINERAL POINT  PTSUNNY   68  48  49 NE3       29.98R
MADISON        PTSUNNY   68  51  54 NE3       29.97S
6HR MIN TEMP:  67; 6HR MAX TEMP:  71;

MIDDLETON      PTSUNNY   69  47  46 E5        29.98R
6HR MIN TEMP:  68; 6HR MAX TEMP:  71;

WATERTOWN      PTSUNNY   66  54  63 N5        29.96S
6HR MIN TEMP:  66; 6HR MAX TEMP:  69;

MONROE         CLOUDY    63  54  72 CALM      29.96F
JANESVILLE     SUNNY     66  54  63 NE5       29.96S
$$

WIZ051-052-058>065-066-070>072-020100-
SOUTHEAST WISCONSIN

CITY           SKY/WX    TMP DP  RH WIND       PRES   REMARKS
MILWAUKEE      CLOUDY    56  50  80 E5        30.00S
6HR MIN TEMP:  54; 6HR MAX TEMP:  62;

WAUKESHA       MOSUNNY   55  50  82 E9        30.00R
MILWAUKEE/TIMM SUNNY     57  48  72 E5        30.01R
RACINE         CLOUDY    55  49  80 N8        30.01S
6HR MIN TEMP:  55; 6HR MAX TEMP:  63;

BURLINGTON     CLOUDY    56  50  81 E6        29.99S
6HR MIN TEMP:  56; 6HR MAX TEMP:  68;

KENOSHA        CLOUDY    56  50  80 E7        30.00S
6HR MIN TEMP:  55; 6HR MAX TEMP:  65;

FOND DU LAC    SUNNY     67  53  61 NE8       29.98S
6HR MIN TEMP:  65; 6HR MAX TEMP:  69;

SHEBOYGAN      MOSUNNY   63  52  67 E5        29.99S
6HR MIN TEMP:  59; 6HR MAX TEMP:  64;

WEST BEND      MOSUNNY   61  52  72 E6        29.99S
JUNEAU         MOSUNNY   66  53  62 N7        29.98S
6HR MIN TEMP:  64; 6HR MAX TEMP:  68;

$$

LSZ147-162-020100-
LAKE SUPERIOR

STATION/POSITION TIME  TEMP    WIND        PRES    WAVE
                       AIR SEA DIR/SP/G            HT/PER
                 (UTC) (F)     (DEG/KT/KT) (MB)    (FT/S)
W MID LAKE BUOY  2350   51 39  160/  4/  4 1016.5F   0
DEVILS ISLAND    0000   63     140/  6/  8 1015.9F
SAXON HARBOR     2340   63        CALM     1015.9F
$$

LMZ867-665-643>646-020100-
LAKE MICHIGAN

STATION/POSITION TIME  TEMP    WIND        PRES    WAVE
                       AIR SEA DIR/SP/G            HT/PER
                 (UTC) (F)     (DEG/KT/KT) (MB)    (FT/S)


USA.gov is the U.S. government's official web portal to all federal, state and local government web resources and services.